WetterOnline ( https://www.wetteronline.de )

Wetter aktuell Bad Kissingen

Aktuelles Wetter: Bad Kissingen (266m)

6-stündlich | Neueste Meldungen
Ortszeit Temperatur Wetter
So, 05.12. 19:00 2.1° C bedeckt
So, 05.12. 13:00 3.9° C bedeckt
So, 05.12. 7:00 2.5° C bewölkt
So, 05.12. 1:00 2.9° C wolkig
Sa, 04.12. 19:00 0.7° C Sprühregen
Sa, 04.12. 13:00 0.4° C Nebel
Sa, 04.12. 7:00 -0.1° C Schneefall
Sa, 04.12. 1:00 1.0° C bewölkt
Ortszeit Temperatur Wetter
So, 05.12. 22:00 1.4° C bedeckt
So, 05.12. 21:50 1.4° C bedeckt
So, 05.12. 21:40 1.5° C bedeckt
So, 05.12. 21:30 1.6° C bedeckt
So, 05.12. 21:20 1.6° C bedeckt
So, 05.12. 21:10 1.5° C bedeckt
So, 05.12. 21:00 1.6° C bedeckt
So, 05.12. 20:30 1.8° C bedeckt
So, 05.12. 20:00 1.9° C bedeckt
So, 05.12. 19:30 1.9° C bedeckt
So, 05.12. 19:00 2.1° C bedeckt
Ortszeit Relative Feuchte Sichtweite
So, 05.12. 19:00 92% 35 km
So, 05.12. 13:00 81% 65 km
So, 05.12. 7:00 89% 45 km
So, 05.12. 1:00 87% 55 km
Sa, 04.12. 19:00 99% 0.2 km
Sa, 04.12. 13:00 97% 0.2 km
Sa, 04.12. 7:00 98% 0.6 km
Sa, 04.12. 1:00 78% 40 km
Ortszeit Relative Feuchte Sichtweite
So, 05.12. 22:00 94% 30 km
So, 05.12. 21:50 94% -
So, 05.12. 21:40 95% -
So, 05.12. 21:30 94% 29 km
So, 05.12. 21:20 94% -
So, 05.12. 21:10 94% -
So, 05.12. 21:00 94% 29 km
So, 05.12. 20:30 92% 40 km
So, 05.12. 20:00 92% 40 km
So, 05.12. 19:30 93% 45 km
So, 05.12. 19:00 92% 35 km
Ortszeit Niederschlagsmenge Niederschlagsart
So, 05.12. 19:00 0.0 l/m2 in 12 Std. -
So, 05.12. 13:00 0.0 l/m2 in 6 Std. -
So, 05.12. 7:00 0.1 l/m2 in 12 Std. Regen
So, 05.12. 1:00 0.1 l/m2 in 6 Std. Regen
Sa, 04.12. 19:00 5 l/m2 in 12 Std. Regen
Sa, 04.12. 13:00 0.7 l/m2 in 6 Std. Schnee, Sprühregen
Sa, 04.12. 7:00 3 l/m2 in 12 Std. Schnee, Regen
Sa, 04.12. 1:00 0.1 l/m2 in 6 Std. Sprühregen, Niederschlag
Ortszeit Niederschlagsmenge Niederschlagsart
So, 05.12. 22:00 0.0 l/m2 in 1 Std. -
So, 05.12. 21:50 keine Meldung -
So, 05.12. 21:40 keine Meldung -
So, 05.12. 21:30 0.0 l/m2 in 1 Std. -
So, 05.12. 21:20 keine Meldung -
So, 05.12. 21:10 keine Meldung -
So, 05.12. 21:00 0.0 l/m2 in 1 Std. -
So, 05.12. 20:30 0.0 l/m2 in 1 Std. -
So, 05.12. 20:00 0.0 l/m2 in 1 Std. -
So, 05.12. 19:30 0.0 l/m2 in 1 Std. -
So, 05.12. 19:00 0.0 l/m2 in 1 Std. -
Ortszeit Stärke Spitze Richtung
km/h Bft. km/h Grad Sektor
So, 05.12. 19:00 6 1 17 60° NO
So, 05.12. 13:00 7 2 22 210° SW
So, 05.12. 7:00 13 3 28 200° S
So, 05.12. 1:00 11 2 33 220° SW
Sa, 04.12. 19:00 4 1 14 320° NW
Sa, 04.12. 13:00 7 2 11 10° N
Sa, 04.12. 7:00 0 0 25 - -
Sa, 04.12. 1:00 14 3 32 200° S
Ortszeit Stärke Spitze Richtung
km/h Bft. km/h Grad Sektor
So, 05.12. 22:00 7 2 7 30° NO
So, 05.12. 21:50 7 2 - 30° NO
So, 05.12. 21:40 6 1 - 10° N
So, 05.12. 21:30 6 1 7 340° N
So, 05.12. 21:20 6 1 - 340° N
So, 05.12. 21:10 6 1 - 340° N
So, 05.12. 21:00 4 1 7 20° N
So, 05.12. 20:30 4 1 7 50° NO
So, 05.12. 20:00 2 1 9 40° NO
So, 05.12. 19:30 6 1 9 40° NO
So, 05.12. 19:00 6 1 9 60° NO
Ortszeit Untergrenze Bedeckung Gattung
total tief tief mittel hoch
So, 05.12. 19:00 1500 m 8/8 8/8 - - -
So, 05.12. 13:00 450 m 8/8 8/8 - - -
So, 05.12. 7:00 540 m 7/8 7/8 - - -
So, 05.12. 1:00 840 m 8/8 1/8 - - -
Sa, 04.12. 19:00 60 m 8/8 8/8 - - -
Sa, 04.12. 13:00 <30 m 8/8 0/8 - - -
Sa, 04.12. 7:00 30 m 7/8 7/8 - - -
Sa, 04.12. 1:00 660 m 7/8 7/8 - - -
Ortszeit Bedeckungsgrad in Achtel und Wolkenuntergrenze
So, 05.12. 22:00 7(1500m) 8(1800m)
So, 05.12. 21:50 7(1500m) 8(1800m)
So, 05.12. 21:40 7(1500m) 8(2100m)
So, 05.12. 21:30 4(1500m) 8(2100m)
So, 05.12. 21:20 4(1500m) 8(2100m)
So, 05.12. 21:10 1(630m) 8(2100m)
So, 05.12. 21:00 1(630m) 3(1500m) 8(1800m)
So, 05.12. 20:30 7(1410m) 8(1800m)
So, 05.12. 20:00 1(1380m) 8(1800m)
So, 05.12. 19:30 6(1410m) 8(1500m)
So, 05.12. 19:00 8(1500m)
Ortszeit Luftdruck NN (hPa) Tendenz (hPa in 3 Std.)
So, 05.12. 19:00 1008 + 1,7
So, 05.12. 13:00 1005 0,0
So, 05.12. 7:00 1004 + 0,6
So, 05.12. 1:00 1002 + 2,2
Sa, 04.12. 19:00 997 - 0,2
Sa, 04.12. 13:00 999 - 2,3
Sa, 04.12. 7:00 1003 - 2,0
Sa, 04.12. 1:00 1007 - 2,4
Ortszeit Luftdruck NN (hPa) Tendenz (hPa in 3 Std.)
So, 05.12. 22:00 1010 + 1,6
So, 05.12. 21:50 1010 keine Meldung
So, 05.12. 21:40 1010 keine Meldung
So, 05.12. 21:30 1010 + 1,8
So, 05.12. 21:20 1010 keine Meldung
So, 05.12. 21:10 1010 keine Meldung
So, 05.12. 21:00 1009 + 1,8
So, 05.12. 20:30 1009 + 1,9
So, 05.12. 20:00 1009 + 2,0
So, 05.12. 19:30 1008 + 1,7
So, 05.12. 19:00 1008 + 1,7
Ortszeit Schneehöhe (cm)
So, 05.12. 19:00 0
So, 05.12. 13:00 0
So, 05.12. 7:00 0
So, 05.12. 1:00 0
Sa, 04.12. 19:00 0
Sa, 04.12. 13:00 -
Sa, 04.12. 7:00 2
Sa, 04.12. 1:00 0
Ortszeit Schneehöhe (cm)
So, 05.12. 22:00 0
So, 05.12. 21:50 0
So, 05.12. 21:40 0
So, 05.12. 21:30 0
So, 05.12. 21:20 0
So, 05.12. 21:10 0
So, 05.12. 21:00 0
So, 05.12. 20:30 0
So, 05.12. 20:00 0
So, 05.12. 19:30 0
So, 05.12. 19:00 0
Link zu dieser Seite / Seite empfehlen

Das Wetter in ...